Flag for Austria Weather past 2 weeks in Linz, Upper Austria, Austria

66 °F


Feels Like: 66 °F
Forecast: 55 / 58 °F
Wind: 9 mph from East

Location: Linz / Hoersching-Flughafen

Current Time: Oct 6, 2015 at 5:22:20 PM

Latest Report: Oct 6, 2015 at 4:50 PM

Visibility: 10 mi

Pressure: 29.74 "Hg

Humidity: 56%

Dew point: 50 °F

Location of LinzLocation

Historic Weather in Linz — Graph


Linz temperature yesterday

Maximum temperature yesterday: 66 °F (at 3:50 PM)
Minimum temperature yesterday: 43 °F (at 6:50 AM)
Average temperature yesterday: 53 °F

Past Weeks' High & Low Weather Summary

High72 °F (Oct 3, 3:20 PM)100% (Sep 24, 3:20 AM)30.51 "Hg (Sep 24, 3:20 AM)
Low41 °F (Sep 30, 5:50 AM)35% (Sep 21, 5:20 PM)29.68 "Hg (Sep 22, 4:50 PM)
Average54 °F72%30.16 "Hg
* Reported Sep 21 3:20 PM — Oct 6 3:50 PM, Linz, Weather by CustomWeather, © 2015

Note: Actual official high and low records may vary slightly from our data, if they occured in-between our weather recording intervals... More about our weather records


Linz weather history for previous 24 hours

Time TempWeatherWind HumidityBarometerVisibility
3:50 PM
Tue, Oct 6
66 °FBroken clouds.8 mph60%29.77 "HgN/A
3:20 PM66 °FPassing clouds.8 mph56%29.77 "HgN/A
2:50 PM66 °FPassing clouds.9 mph56%29.77 "HgN/A
2:20 PM64 °FPassing clouds.9 mph60%29.80 "HgN/A
1:50 PM63 °FSunny.8 mph64%29.80 "Hg10 mi
1:20 PM61 °FPartly sunny.9 mph68%29.80 "HgN/A
12:50 PM61 °FPartly sunny.9 mph68%29.83 "HgN/A
12:20 PM61 °FPartly sunny.9 mph68%29.83 "HgN/A
11:50 AM59 °FPartly sunny.9 mph72%29.83 "HgN/A
11:20 AM57 °FPartly sunny.9 mph77%29.86 "HgN/A
10:50 AM55 °FPartly sunny.7 mph77%29.86 "HgN/A
10:20 AM54 °FBroken clouds.7 mph88%29.86 "HgN/A
9:50 AM52 °FPartly sunny.3 mph88%29.86 "HgN/A
9:20 AM52 °FPartly sunny.3 mph88%29.86 "HgN/A
8:50 AM50 °FPartly sunny.1 mph94%29.89 "HgN/A
8:20 AM50 °FLight rain. Partly sunny.2 mph94%29.89 "HgN/A
7:50 AM50 °FLight rain. Passing clouds.2 mph94%29.89 "HgN/A
7:20 AM50 °FLight rain. Passing clouds.3 mph88%29.86 "HgN/A
6:50 AM48 °FPassing clouds.1 mph94%29.86 "HgN/A
6:20 AM48 °FPassing clouds.2 mph94%29.86 "HgN/A
5:50 AM50 °FClear.1 mph88%29.86 "Hg10 mi
5:20 AM50 °FClear.1 mph88%29.86 "Hg10 mi
4:50 AM50 °FClear.2 mph88%29.86 "Hg10 mi
4:20 AM50 °FClear.5 mph88%29.86 "Hg10 mi
3:50 AM50 °FClear.6 mph88%29.86 "Hg10 mi
3:20 AM50 °FPassing clouds.2 mph82%29.86 "HgN/A
2:50 AM52 °FPassing clouds.5 mph82%29.86 "HgN/A
2:20 AM52 °FPassing clouds.6 mph82%29.86 "HgN/A
1:50 AM52 °FPassing clouds.7 mph82%29.86 "HgN/A
1:20 AM52 °FPassing clouds.7 mph77%29.89 "HgN/A
12:50 AM54 °FPassing clouds.6 mph72%29.89 "HgN/A
12:20 AM52 °FPassing clouds.6 mph77%29.89 "HgN/A
11:50 PM
Mon, Oct 5
52 °FPassing clouds.5 mph77%29.92 "HgN/A
10:50 PM50 °FClear.6 mph82%29.95 "Hg10 mi
10:20 PM50 °FClear.5 mph82%29.95 "Hg10 mi
9:50 PM52 °FClear.5 mph77%29.95 "Hg10 mi
9:20 PM50 °FClear.5 mph82%29.95 "Hg10 mi
8:50 PM52 °FClear.3 mph77%29.95 "Hg10 mi
8:20 PM54 °FClear.5 mph72%29.95 "Hg10 mi
7:50 PM54 °FClear.3 mph72%29.98 "Hg10 mi
7:20 PM57 °FSunny.1 mph63%29.98 "Hg10 mi
6:50 PM61 °FSunny.2 mph55%29.98 "Hg10 mi
6:20 PM61 °FSunny.3 mph55%29.98 "Hg10 mi
5:50 PM64 °FSunny.3 mph46%29.98 "Hg10 mi
5:20 PM64 °FScattered clouds.3 mph46%29.98 "HgN/A
Weather by CustomWeather, © 2015

See weather overviewHow to use our weather pages